Location: Unspecified
(41.1617°N, 0.0000°E)
Time: 06:28:48
(UTC+00:00)

Transit 2A Rocket - Visible Passes

Search period start: 04 April 2026 00:00
Search period end: 14 April 2026 00:00
Orbit: 584 x 899 km, 66.7° (Epoch: 28 March)

Date Brightness Start Highest point End Pass type
(mag) Time Alt. Az. Time Alt. Az. Time Alt. Az.
4 Apr 7.8 03:19:46 10° SE 03:23:07 15° ESE 03:26:24 10° ENE visible
4 Apr 5.3 04:58:52 10° SSW 05:04:52 83° WNW 05:10:38 10° NNE visible
5 Apr 5.8 04:13:22 10° SSW 04:19:13 58° ESE 04:24:52 10° NE visible
6 Apr 6.7 03:28:55 12° S 03:33:42 33° ESE 03:38:47 10° NE visible
7 Apr 7.4 02:45:08 12° SE 02:48:18 18° ESE 02:52:09 10° ENE visible
7 Apr 5.3 04:24:51 13° SW 04:30:11 72° WNW 04:35:53 10° NNE visible
8 Apr 5.5 03:40:57 25° SSW 03:44:30 68° ESE 03:50:10 10° NE visible
9 Apr 6.3 02:56:56 30° SSE 02:58:55 38° ESE 03:04:11 10° NE visible
9 Apr 6.0 04:36:38 13° WSW 04:41:20 37° NW 04:46:32 10° NNE visible
10 Apr 7.0 02:12:49 21° ESE 02:13:29 22° ESE 02:17:46 10° ENE visible
10 Apr 5.3 03:52:31 29° SW 03:55:29 62° WNW 04:01:06 10° NNE visible
11 Apr 7.7 01:28:38 11° E 01:28:38 11° E 01:29:56 10° E visible
11 Apr 5.2 03:08:20 53° SSW 03:09:45 79° ESE 03:15:27 10° NNE visible
11 Apr 6.7 04:48:26 10° W 04:52:43 20° NW 04:56:50 10° N visible
12 Apr 5.9 02:24:04 45° ESE 02:24:08 45° ESE 02:29:33 10° NE visible
12 Apr 6.2 04:03:46 21° W 04:06:40 32° NW 04:11:40 10° NNE visible
13 Apr 7.0 01:39:45 24° E 01:39:45 24° E 01:43:17 10° NE visible
13 Apr 5.5 03:19:26 44° W 03:20:46 53° NW 03:26:16 10° NNE visible
